| time (UTC) | temp C | wind direction | speed KPH | gust KPH | rain 1hr cm | rain 24hr cm | rain mn cm | humidity % | barometer mb |
| 20260506193025 | 13 | 317 | 3.2 | 4.8 | 0.00 | 0.03 | 0.03 | 90 | 1040.5 |
| 20260506192024 | 13 | 340 | 3.2 | 9.7 | 0.00 | 0.03 | 0.03 | 89 | 1040.6 |
| 20260506190022 | 13 | 342 | 6.4 | 12.9 | 0.00 | 0.03 | 0.03 | 90 | 1039.6 |
| 20260506185039 | 13 | 353 | 8.0 | 14.5 | 0.00 | 0.03 | 0.03 | 90 | 1041.1 |
| 20260506183024 | 13 | 304 | 3.2 | 8.0 | 0.00 | 0.03 | 0.03 | 89 | 1041.4 |
| 20260506182024 | 14 | 337 | 0.0 | 3.2 | 0.00 | 0.03 | 0.03 | 89 | 1041.7 |
| 20260506181940 | 14 | 356 | 4.8 | 11.3 | 0.00 | 0.03 | 0.03 | 88 | 1041.4 |
| 20260506181023 | 14 | 5 | 4.8 | 6.4 | 0.00 | 0.03 | 0.03 | 88 | 1041.2 |
| 20260506180940 | 14 | 24 | 9.7 | 14.5 | 0.00 | 0.03 | 0.03 | 88 | 1041.3 |
| 20260506180024 | 14 | 330 | 3.2 | 6.4 | 0.00 | 0.03 | 0.03 | 88 | 1041.8 |
| 20260506175024 | 14 | 333 | 3.2 | 6.4 | 0.00 | 0.03 | 0.03 | 89 | 1041.2 |
| 20260506174023 | 14 | 75 | 1.6 | 4.8 | 0.00 | 0.03 | 0.03 | 89 | 1041.9 |
| 20260506172023 | 13 | 339 | 1.6 | 4.8 | 0.00 | 0.03 | 0.03 | 91 | 1042.0 |
| 20260506171023 | 13 | 2 | 4.8 | 8.0 | 0.00 | 0.03 | 0.03 | 93 | 1042.3 |
| 20260506170040 | 13 | 354 | 3.2 | 6.4 | 0.00 | 0.03 | 0.03 | 93 | 1042.6 |
| 20260506165122 | 13 | 322 | 3.2 | 9.7 | 0.00 | 0.03 | 0.03 | 93 | 1042.5 |
| 20260506165041 | 13 | 348 | 3.2 | 4.8 | 0.00 | 0.03 | 0.03 | 93 | 1042.5 |
| 20260506164941 | 13 | 325 | 3.2 | 6.4 | 0.00 | 0.03 | 0.03 | 93 | 1042.4 |
| 20260506164023 | 14 | 345 | 4.8 | 11.3 | 0.00 | 0.03 | 0.03 | 93 | 1042.2 |
| 20260506163923 | 14 | 358 | 3.2 | 4.8 | 0.00 | 0.03 | 0.03 | 93 | 1042.2 |
| 20260506162023 | 15 | 355 | 4.8 | 6.4 | 0.03 | 0.03 | 0.03 | 92 | 1042.1 |
| 20260506161024 | 15 | 334 | 3.2 | 4.8 | 0.03 | 0.03 | 0.03 | 93 | 1041.4 |
| 20260506160025 | 15 | 348 | 6.4 | 9.7 | 0.03 | 0.03 | 0.03 | 93 | 1040.8 |
| 20260506155941 | 15 | 353 | 6.4 | 9.7 | 0.03 | 0.03 | 0.03 | 93 | 1040.7 |
| 20260506154922 | 16 | 345 | 3.2 | 4.8 | 0.03 | 0.03 | 0.03 | 93 | 1040.7 |
| 20260506153940 | 16 | 347 | 1.6 | 1.6 | 0.03 | 0.03 | 0.00 | 93 | 1040.7 |
| 20260506151923 | 16 | 30 | 3.2 | 6.4 | 0.00 | 0.00 | 0.00 | 91 | 1040.5 |
| 20260506150940 | 16 | 309 | 4.8 | 9.7 | 0.00 | 0.00 | 0.00 | 89 | 1040.1 |
| 20260506150024 | 16 | 34 | 6.4 | 9.7 | 0.00 | 0.00 | 0.00 | 88 | 1039.9 |
| 20260506145938 | 16 | 15 | 4.8 | 9.7 | 0.00 | 0.00 | 0.00 | 88 | 1039.9 |
| 20260506144123 | 16 | 11 | 3.2 | 4.8 | 0.00 | 0.00 | 0.00 | 87 | 1040.0 |
| 20260506143022 | 16 | 19 | 3.2 | 6.4 | 0.00 | 0.00 | 0.00 | 87 | 1039.8 |
| 20260506135023 | 17 | 301 | 1.6 | 3.2 | 0.00 | 0.00 | 0.00 | 87 | 1039.4 |
| 20260506134923 | 17 | 360 | 3.2 | 8.0 | 0.00 | 0.00 | 0.00 | 87 | 1039.4 |
| 20260506133922 | 17 | 315 | 0.0 | 1.6 | 0.00 | 0.00 | 0.00 | 88 | 1039.4 |
| 20260506131924 | 16 | 319 | 1.6 | 3.2 | 0.00 | 0.00 | 0.00 | 88 | 1039.2 |
| 20260506124939 | 17 | 67 | 0.0 | 0.0 | 0.00 | 0.00 | 0.00 | 89 | 1038.9 |
| 20260506123923 | 17 | 315 | 1.6 | 3.2 | 0.00 | 0.00 | 0.00 | 89 | 1038.6 |
| 20260506122923 | 17 | 315 | 1.6 | 3.2 | 0.00 | 0.00 | 0.00 | 89 | 1038.2 |
| 20260506122824 | 17 | 315 | 1.6 | 1.6 | 0.00 | 0.00 | 0.00 | 89 | 1038.3 |
| 20260506121824 | 17 | 342 | 1.6 | 4.8 | 0.00 | 0.00 | 0.00 | 89 | 1038.2 |
| 20260506114825 | 17 | 360 | 0.0 | 1.6 | 0.00 | 0.00 | 0.00 | 89 | 1037.3 |
| 20260506113824 | 17 | 360 | 0.0 | 0.0 | 0.00 | 0.00 | 0.00 | 89 | 1037.2 |
| 20260506112824 | 17 | 360 | 0.0 | 0.0 | 0.00 | 0.00 | 0.00 | 89 | 1036.9 |
| 20260506110839 | 17 | 360 | 0.0 | 0.0 | 0.00 | 0.00 | 0.00 | 89 | 1036.9 |
| 20260506105823 | 17 | 360 | 0.0 | 0.0 | 0.00 | 0.00 | 0.00 | 89 | 1036.8 |
| 20260506104840 | 17 | 360 | 0.0 | 0.0 | 0.00 | 0.00 | 0.00 | 89 | 1036.6 |
| 20260506103925 | 17 | 292 | 0.0 | 0.0 | 0.00 | 0.00 | 0.00 | 89 | 1036.8 |
| 20260506102924 | 17 | 292 | 0.0 | 0.0 | 0.00 | 0.00 | 0.00 | 89 | 1036.8 |
| 20260506101923 | 17 | 270 | 0.0 | 0.0 | 0.00 | 0.00 | 0.00 | 89 | 1036.6 |
| 20260506100939 | 17 | 292 | 0.0 | 0.0 | 0.00 | 0.00 | 0.00 | 89 | 1036.3 |
| 20260506100036 | 17 | 315 | 0.0 | 0.0 | 0.00 | 0.00 | 0.00 | 89 | 1036.2 |
| 20260506095024 | 18 | 315 | 0.0 | 0.0 | 0.00 | 0.00 | 0.00 | 89 | 1036.1 |
| 20260506094025 | 18 | 292 | 0.0 | 1.6 | 0.00 | 0.00 | 0.00 | 89 | 1036.2 |
| 20260506093122 | 18 | 315 | 0.0 | 1.6 | 0.00 | 0.00 | 0.00 | 88 | 1035.9 |
| 20260506092141 | 19 | 90 | 0.0 | 1.6 | 0.00 | 0.00 | 0.00 | 87 | 1035.6 |
| 20260506091238 | 20 | 22 | 1.6 | 3.2 | 0.00 | 0.00 | 0.00 | 86 | 1035.5 |
| 20260506090324 | 21 | 337 | 0.0 | 1.6 | 0.00 | 0.00 | 0.00 | 84 | 1035.3 |
| 20260506085339 | 22 | 143 | 0.0 | 3.2 | 0.00 | 0.00 | 0.00 | 85 | 1035.4 |
| 20260506084422 | 23 | 4 | 4.8 | 11.3 | 0.00 | 0.00 | 0.00 | 88 | 1035.0 |
| 20260506084322 | 23 | 319 | 4.8 | 6.4 | 0.00 | 0.00 | 0.00 | 88 | 1035.1 |
| 20260506084238 | 23 | 233 | 0.0 | 3.2 | 0.00 | 0.00 | 0.00 | 88 | 1035.0 |
| 20260506083223 | 23 | 202 | 3.2 | 4.8 | 0.00 | 0.00 | 0.00 | 88 | 1034.8 |
| 20260506081323 | 23 | 184 | 3.2 | 4.8 | 0.00 | 0.00 | 0.00 | 90 | 1034.6 |
| 20260506080324 | 23 | 202 | 3.2 | 4.8 | 0.00 | 0.00 | 0.00 | 89 | 1034.4 |
| 20260506071423 | 23 | 225 | 3.2 | 4.8 | 0.00 | 0.00 | 0.00 | 90 | 1034.4 |
| 20260506070425 | 23 | 202 | 1.6 | 3.2 | 0.00 | 0.00 | 0.00 | 89 | 1034.2 |
| 20260506062322 | 23 | 225 | 1.6 | 3.2 | 0.00 | 0.00 | 0.00 | 89 | 1034.7 |
| 20260506062224 | 23 | 220 | 1.6 | 4.8 | 0.00 | 0.00 | 0.00 | 90 | 1034.6 |
| 20260506061241 | 23 | 215 | 3.2 | 4.8 | 0.00 | 0.00 | 0.00 | 89 | 1034.8 |
| 20260506060323 | 23 | 203 | 3.2 | 4.8 | 0.00 | 0.00 | 0.00 | 90 | 1034.5 |
| 20260506050123 | 23 | 202 | 1.6 | 3.2 | 0.00 | 0.00 | 0.00 | 88 | 1034.6 |
| 20260506045035 | 23 | 202 | 1.6 | 3.2 | 0.00 | 0.00 | 0.00 | 87 | 1034.7 |
| 20260506044034 | 24 | 202 | 1.6 | 4.8 | 0.00 | 0.00 | 0.00 | 87 | 1034.7 |
| 20260506042136 | 24 | 180 | 1.6 | 4.8 | 0.00 | 0.00 | 0.00 | 85 | 1034.2 |
| 20260506042038 | 24 | 180 | 3.2 | 4.8 | 0.00 | 0.00 | 0.00 | 85 | 1034.3 |
| 20260506041137 | 24 | 180 | 0.0 | 1.6 | 0.00 | 0.00 | 0.00 | 85 | 1034.5 |
| 20260506040236 | 24 | 202 | 1.6 | 1.6 | 0.00 | 0.00 | 0.00 | 84 | 1034.2 |
| 20260506035238 | 25 | 202 | 3.2 | 4.8 | 0.00 | 0.00 | 0.00 | 84 | 1033.6 |
| 20260506034237 | 25 | 195 | 1.6 | 3.2 | 0.00 | 0.00 | 0.00 | 83 | 1033.7 |
| 20260506033237 | 25 | 202 | 3.2 | 6.4 | 0.00 | 0.00 | 0.00 | 83 | 1033.7 |
| 20260506032336 | 25 | 180 | 0.0 | 3.2 | 0.00 | 0.00 | 0.00 | 83 | 1033.6 |
| 20260506032238 | 25 | 180 | 3.2 | 4.8 | 0.00 | 0.00 | 0.00 | 82 | 1033.7 |
| 20260506031237 | 25 | 202 | 1.6 | 3.2 | 0.00 | 0.00 | 0.00 | 83 | 1033.7 |
| 20260506031135 | 25 | 202 | 1.6 | 3.2 | 0.00 | 0.00 | 0.00 | 83 | 1033.6 |
| 20260506030137 | 25 | 202 | 1.6 | 3.2 | 0.00 | 0.00 | 0.00 | 83 | 1033.6 |
| 20260506030040 | 25 | 202 | 3.2 | 4.8 | 0.00 | 0.00 | 0.00 | 82 | 1033.6 |
| 20260506025053 | 25 | 195 | 3.2 | 3.2 | 0.00 | 0.00 | 0.00 | 83 | 1033.3 |
| 20260506024135 | 25 | 180 | 1.6 | 3.2 | 0.00 | 0.00 | 0.00 | 82 | 1032.9 |
| 20260506023137 | 25 | 202 | 3.2 | 6.4 | 0.00 | 0.00 | 0.00 | 82 | 1032.6 |
| 20260506023051 | 25 | 183 | 3.2 | 4.8 | 0.00 | 0.00 | 0.00 | 82 | 1032.7 |
| 20260506021938 | 25 | 180 | 1.6 | 3.2 | 0.00 | 0.00 | 0.00 | 82 | 1033.1 |
| 20260506021851 | 25 | 180 | 1.6 | 1.6 | 0.00 | 0.00 | 0.00 | 82 | 1033.1 |
| 20260506020835 | 25 | 202 | 0.0 | 0.0 | 0.00 | 0.00 | 0.00 | 81 | 1033.3 |
| 20260506015935 | 25 | 202 | 0.0 | 0.0 | 0.00 | 0.00 | 0.00 | 81 | 1033.0 |
| 20260506014953 | 25 | 202 | 0.0 | 0.0 | 0.00 | 0.00 | 0.00 | 79 | 1033.2 |
| 20260506014051 | 26 | 202 | 0.0 | 0.0 | 0.00 | 0.00 | 0.00 | 78 | 1033.0 |
| 20260506013037 | 26 | 202 | 0.0 | 0.0 | 0.00 | 0.00 | 0.00 | 78 | 1032.7 |
| 20260506012135 | 26 | 202 | 0.0 | 1.6 | 0.00 | 0.00 | 0.00 | 76 | 1032.8 |
| 20260506012038 | 26 | 202 | 1.6 | 1.6 | 0.00 | 0.00 | 0.00 | 77 | 1032.7 |
| 20260506011136 | 26 | 202 | 0.0 | 0.0 | 0.00 | 0.00 | 0.00 | 77 | 1032.8 |
| 20260506010235 | 26 | 202 | 0.0 | 0.0 | 0.00 | 0.00 | 0.00 | 75 | 1032.5 |
| 20260506005251 | 26 | 202 | 0.0 | 0.0 | 0.00 | 0.00 | 0.00 | 75 | 1032.3 |
| 20260506005139 | 26 | 202 | 0.0 | 0.0 | 0.00 | 0.00 | 0.00 | 75 | 1032.3 |
| 20260506004235 | 26 | 202 | 0.0 | 0.0 | 0.00 | 0.00 | 0.00 | 73 | 1032.1 |
| 20260506003252 | 27 | 202 | 0.0 | 0.0 | 0.00 | 0.00 | 0.00 | 73 | 1032.0 |
| 20260506002337 | 27 | 185 | 0.0 | 1.6 | 0.00 | 0.00 | 0.00 | 72 | 1032.0 |
| 20260506001436 | 27 | 194 | 1.6 | 3.2 | 0.00 | 0.00 | 0.00 | 71 | 1032.1 |
| 20260506000451 | 27 | 216 | 3.2 | 4.8 | 0.00 | 0.00 | 0.00 | 71 | 1031.9 |
| 20260505235535 | 27 | 191 | 3.2 | 3.2 | 0.00 | 0.00 | 0.00 | 70 | 1031.7 |
| 20260505234539 | 27 | 186 | 3.2 | 6.4 | 0.00 | 0.00 | 0.00 | 71 | 1031.8 |
| 20260505233538 | 27 | 202 | 1.6 | 3.2 | 0.00 | 0.00 | 0.00 | 71 | 1031.8 |
| 20260505232635 | 27 | 202 | 3.2 | 4.8 | 0.00 | 0.00 | 0.00 | 71 | 1031.9 |
| 20260505231637 | 27 | 202 | 1.6 | 3.2 | 0.00 | 0.00 | 0.00 | 70 | 1032.0 |
| 20260505230638 | 27 | 203 | 3.2 | 6.4 | 0.00 | 0.00 | 0.00 | 68 | 1031.9 |
| 20260505225736 | 28 | 202 | 3.2 | 4.8 | 0.00 | 0.00 | 0.00 | 69 | 1031.9 |
| 20260505224750 | 28 | 224 | 3.2 | 4.8 | 0.00 | 0.00 | 0.00 | 68 | 1032.0 |
| 20260505223836 | 28 | 220 | 1.6 | 3.2 | 0.00 | 0.00 | 0.00 | 67 | 1031.9 |
| 20260505222853 | 27 | 238 | 3.2 | 6.4 | 0.00 | 0.00 | 0.00 | 68 | 1031.7 |
| 20260505221937 | 27 | 202 | 4.8 | 6.4 | 0.00 | 0.00 | 0.00 | 68 | 1031.7 |
| 20260505220936 | 28 | 225 | 3.2 | 4.8 | 0.00 | 0.00 | 0.00 | 68 | 1031.8 |
| 20260505214936 | 27 | 199 | 4.8 | 8.0 | 0.00 | 0.00 | 0.00 | 68 | 1031.7 |
| 20260505213937 | 27 | 201 | 3.2 | 8.0 | 0.00 | 0.00 | 0.00 | 69 | 1031.9 |
| 20260505213035 | 27 | 202 | 1.6 | 4.8 | 0.00 | 0.00 | 0.00 | 69 | 1032.1 |
| 20260505212935 | 27 | 202 | 4.8 | 6.4 | 0.00 | 0.00 | 0.00 | 69 | 1032.1 |
| 20260505211935 | 27 | 201 | 3.2 | 6.4 | 0.00 | 0.00 | 0.00 | 69 | 1032.3 |
| 20260505211837 | 27 | 198 | 4.8 | 6.4 | 0.00 | 0.00 | 0.00 | 69 | 1032.3 |
| 20260505210835 | 27 | 187 | 6.4 | 9.7 | 0.00 | 0.00 | 0.00 | 69 | 1032.2 |
| 20260505210737 | 27 | 190 | 8.0 | 12.9 | 0.00 | 0.00 | 0.00 | 69 | 1032.3 |
| 20260505205836 | 27 | 198 | 3.2 | 6.4 | 0.00 | 0.00 | 0.00 | 68 | 1032.2 |
| 20260505203854 | 27 | 222 | 3.2 | 6.4 | 0.00 | 0.00 | 0.00 | 69 | 1032.3 |
| 20260505201937 | 27 | 206 | 4.8 | 6.4 | 0.00 | 0.00 | 0.00 | 69 | 1032.6 |
| 20260505201036 | 27 | 225 | 3.2 | 3.2 | 0.00 | 0.00 | 0.00 | 69 | 1032.7 |
| 20260505200052 | 27 | 225 | 3.2 | 6.4 | 0.00 | 0.00 | 0.00 | 68 | 1032.8 |
| 20260505195040 | 27 | 198 | 6.4 | 14.5 | 0.00 | 0.00 | 0.00 | 68 | 1032.8 |
| 20260505193935 | 27 | 197 | 4.8 | 9.7 | 0.00 | 0.00 | 0.00 | 68 | 1032.5 |